Hourly Data Report for October 11, 2015

All times are specified in Local Standard Time (LST). Add 1 hour to adjust for Daylight Saving Time where and when it is observed.

WINNIPEG A CS
MANITOBA

49°55'00.000" N
97°14'58.000" W
238.70 m
502S001
71849
XWG

Download Data

Hourly Data (October 2015)
Hourly Data Report for October 11, 2015
Temp Definition
°C
Dew Point Temp Definition
°C
Rel Hum Definition
%
Wind Dir Definition
10's deg

Wind Spd Definition
km/h
Visibility Definition
km
Stn Press Definition
kPa
Hmdx Definition


Wind Chill Definition


Weather Definition


TIME
00:00 10.5 7.9 84 21 5   96.76     LegendNANA
01:00 12.1 9.4 84 22 13   96.71     LegendNANA
02:00 11.3 8.4 82 22 7   96.67     LegendNANA
03:00 12.7 9.1 79 24 10   96.64     LegendNANA
04:00 13.4 9.3 76 23 15   96.57     LegendNANA
05:00 13.5 9.4 76 21 11   96.58     LegendNANA
06:00 12.8 9.1 78 21 13   96.58     LegendNANA
07:00 12.3 8.7 79 22 12   96.55     LegendNANA
08:00 12.5 9.2 80 19 10   96.52     LegendNANA
09:00 16.0 10.0 68 21 9   96.50     LegendNANA
10:00 19.6 10.7 56 24 7   96.44     LegendNANA
11:00 24.2 11.8 46 26 5   96.33 26   LegendNANA
12:00 23.9 11.8 47 20 7   96.26 26   LegendNANA
13:00 23.2 12.7 52 14 9   96.19 26   LegendNANA
14:00 22.0 12.6 55 15 16   96.07 25   LegendNANA
15:00 23.3 12.2 50 8 6   96.01 26   LegendNANA
16:00 22.1 13.9 60 7 8   95.96 25   LegendNANA
17:00 20.3 14.1 68 31 15   96.01     LegendNANA
18:00 17.8 10.0 61 28 40   96.12     LegendNANA
19:00 14.3 12.0 86 30 41   96.19     LegendNANA
20:00 12.7 11.2 91 29 33   96.22     LegendNANA
21:00 11.9 10.9 93 28 16   96.15     LegendNANA
22:00 10.9 9.9 94 22 10   96.07     LegendNANA
23:00 11.2 9.1 86 23 16   95.95     LegendNANA

Notes on Data Quality.

Legend

  • E = Estimated
  • M = Missing
  • NA = Not Available
  • ‡ = Partner data that is not subject to review by the National Climate Archives
Date modified: